Regional Weather Roundup
Issued by NWS

Home | Current Version | Previous Version | Text Only | Print | Product List | Glossary Off
Versions: 1 2 3 4 5 6 7 8 9 10 11 12 13 14 15 16 17 18 19 20 21 22 23 24 25 26 27 28 29 30 31 32 33 34 35 36 37 38 39 40 41 42 43 44 45 46 47 48 49 50

000
ASUS43 KIND 310009
RWRIN

WEATHER ROUNDUP FOR INDIANA
NATIONAL WEATHER SERVICE INDIANAPOLIS IN
800 PM EDT THU JUL 30 2015

NOTE: "FAIR" INDICATES FEW OR NO CLOUDS BELOW 12,000 FEET WITH NO
SIGNIFICANT WEATHER AND/OR OBSTRUCTIONS TO VISIBILITY.

* - STATION DOES NOT REPORT WEATHER SUCH AS PRECIPITATION OR FOG.

+ - STATION NOT QUALITY CONTROLLED BY THE NATIONAL WEATHER SERVICE.
    USE DATA WITH CAUTION...ESPECIALLY DEWPOINT AND RELATIVE
    HUMIDITY OBSERVATIONS.

INZ001>003-010>013-019-020-310100-
NORTHWEST INDIANA

CITY           SKY/WX    TMP DP  RH WIND       PRES   REMARKS
GARY /AIRPORT/ MOSUNNY   86  52  30 W12G25    30.00F
KNOX *+        SUNNY     81  59  47 CALM      30.00F
LA PORTE +     SUNNY     83  58  41 CALM      30.01F
6HR MIN TEMP:  83; 6HR MAX TEMP:  86;

MICHIGAN CITY+ SUNNY     81  54  39 CALM      30.00F
MONTICELLO +   SUNNY     81  58  45 W5        30.01F
6HR MIN TEMP:  81; 6HR MAX TEMP:  85;

RENSSELAER +   SUNNY     81  57  44 W6        30.03S
VALPARAISO     SUNNY     82  55  39 W7        30.01F
6HR MIN TEMP:  82; 6HR MAX TEMP:  87;


$$

LMZ046-743>745-310100-
SOUTHERN LAKE MICHIGAN

STATION/POSITION TIME  TEMP    WIND        PRES    WAVE
                       AIR SEA DIR/SP/G            HT
                 (UTC) (F)     (DEG/KT/KT) (MB)    (FT)
BURNS HARBOR     2300   85      60/  3/  3 1016.3F
MICHIGAN CITY    2300   80     210/  3/  3   N/A
5NW MICH CITY    0000   79 76  220/  2/  4   N/A     1

$$

INZ004-005-014>016-021>024-310100-
NORTH CENTRAL INDIANA

CITY           SKY/WX    TMP DP  RH WIND       PRES   REMARKS
ELKHART        SUNNY     82  54  36 W7        30.00F
GOSHEN         SUNNY     78  60  53 W7        30.00F
6HR MIN TEMP:  78; 6HR MAX TEMP:  83;

LOGANSPORT +   SUNNY     79  54  41 W5        30.03S
PERU/GRISSOM   SUNNY     82  59  45 W8        30.01F
6HR MIN TEMP:  82; 6HR MAX TEMP:  86;

ROCHESTER +    SUNNY     82  57  42 W5        30.02F
SOUTH BEND     SUNNY     82  58  43 W6        30.01F
6HR MIN TEMP:  82; 6HR MAX TEMP:  86;

WARSAW +       SUNNY     81  57  44 W3        30.01F

$$

INZ006>009-017-018-025>027-310100-
NORTHEAST INDIANA

CITY           SKY/WX    TMP DP  RH WIND       PRES   REMARKS
ANGOLA *+      CLEAR     81  59  47 W6        30.00F
AUBURN +       CLEAR     81  52  36 NW6       30.02S
FORT WAYNE     CLEAR     81  53  37 W6        30.02F
6HR MIN TEMP:  81; 6HR MAX TEMP:  85;

HUNTINGTON +   CLEAR     79  55  43 CALM      30.02S
6HR MIN TEMP:  79; 6HR MAX TEMP:  83;


$$

INZ028-029-035-036-043>045-051>053-310100-
WEST CENTRAL INDIANA

CITY           SKY/WX    TMP DP  RH WIND       PRES   REMARKS
CRAWFORDSVL +  SUNNY     77  58  52 W3          N/A
6HR MIN TEMP:  77; 6HR MAX TEMP:  82; 6HR PCP:  0.01;

GREENCASTLE +  SUNNY     81  55  41 CALM      30.06S
LAFAYETTE      SUNNY     80  61  52 W6        30.02F
6HR MIN TEMP:  80; 6HR MAX TEMP:  85;

TERRE HAUTE    SUNNY     83  60  45 NW9       30.05F
6HR MIN TEMP:  83; 6HR MAX TEMP:  87;


$$

INZ030>032-037>040-046>048-054>057-064-065-310100-
CENTRAL INDIANA

CITY           SKY/WX    TMP DP  RH WIND       PRES   REMARKS
FRANKFORT +    SUNNY     80  63  55 W6        30.06F
6HR MIN TEMP:  80; 6HR MAX TEMP:  85;

GREENWOOD *+   CLEAR     81  50  34 NW6G16    30.05F
INDIANAPOLIS   MOSUNNY   82  56  40 NW9       30.04F
6HR MIN TEMP:  82; 6HR MAX TEMP:  86;

-EAGLE CREEK   SUNNY     81  59  47 W8        30.04F
6HR MIN TEMP:  81; 6HR MAX TEMP:  84;

KOKOMO *+      SUNNY     82  59  44 W6        30.03S
6HR MIN TEMP:  82; 6HR MAX TEMP:  86;

MARION +       PTCLDY    79  59  49 CALM      30.03F
MT COMFORT *+  CLEAR     81  45  28 NW9       30.05S
SHELBYVILLE    CLEAR     81  57  43 NW8       30.03F
6HR MIN TEMP:  81; 6HR MAX TEMP:  86;

ZIONSVILLE +   SUNNY     80  58  46 W5        30.06S
6HR MIN TEMP:  80; 6HR MAX TEMP:  84;


$$

INZ033-034-041-042-049-050-058-059-310100-
EAST CENTRAL INDIANA

CITY           SKY/WX    TMP DP  RH WIND       PRES   REMARKS
MUNCIE         CLEAR     78  59  51 NW7       30.03F
6HR MIN TEMP:  78; 6HR MAX TEMP:  83;


$$

INZ060-061-067>069-081>083-085>088-310100-
SOUTHWEST INDIANA

CITY           SKY/WX    TMP DP  RH WIND       PRES   REMARKS
EVANSVILLE     MOSUNNY   84  62  47 NW3       30.06F
6HR MIN TEMP:  84; 6HR MAX TEMP:  89;

HUNTINGBURG *+ MOSUNNY   82  63  51 NW5       30.06S
6HR MIN TEMP:  82; 6HR MAX TEMP:  86;

WASHINGTON +   MOSUNNY   80  61  52 NW3       30.05S
6HR MIN TEMP:  79; 6HR MAX TEMP:  86;


$$

INZ062-063-066-070>080-084-089>092-310100-
SOUTH CENTRAL AND SOUTHEAST INDIANA

CITY           SKY/WX    TMP DP  RH WIND       PRES   REMARKS
BLOOMINGTON    SUNNY     80  62  54 CALM      30.06S
6HR MIN TEMP:  80; 6HR MAX TEMP:  86;

MADISON *+     CLEAR     79  55  44 NW3       30.07S
NORTH VERNON + CLEAR     82  55  39 CALM      30.05F
SEYMOUR +      CLEAR     82  61  47 NW5       30.04F

$$



USA.gov is the U.S. government's official web portal to all federal, state and local government web resources and services.